| time (UTC) | temp F | wind direction | speed MPH | gust MPH | rain 1hr in | rain 24hr in | rain mn in | humidity % | barometer mb |
| 20260904210044 | 71 | 250 | 8.0 | 13.0 | 0.00 | 0.00 | 0.00 | 40 | 1007.5 |
| 20260904204533 | 72 | 290 | 2.0 | 8.0 | 0.00 | 0.00 | 0.00 | 41 | 1007.1 |
| 20260904203032 | 73 | 333 | 2.0 | 6.0 | 0.00 | 0.00 | 0.00 | 41 | 1007.2 |
| 20260904201526 | 72 | 327 | 6.0 | 11.0 | 0.00 | 0.00 | 0.00 | 43 | 1006.8 |
| 20260904200027 | 72 | 342 | 5.0 | 9.0 | 0.00 | 0.00 | 0.00 | 42 | 1006.8 |
| 20260904194525 | 74 | 346 | 5.0 | 9.0 | 0.00 | 0.00 | 0.00 | 41 | 1006.5 |
| 20260904193023 | 72 | 355 | 3.0 | 9.0 | 0.00 | 0.00 | 0.00 | 42 | 1006.5 |
| 20260904191525 | 73 | 10 | 6.0 | 11.0 | 0.00 | 0.00 | 0.00 | 40 | 1006.1 |
| 20260904190031 | 70 | 355 | 5.0 | 9.0 | 0.00 | 0.00 | 0.00 | 43 | 1006.4 |
| 20260904184519 | 71 | 334 | 2.0 | 9.0 | 0.00 | 0.00 | 0.00 | 46 | 1006.4 |
| 20260904183024 | 72 | 339 | 3.0 | 10.0 | 0.00 | 0.00 | 0.00 | 45 | 1006.4 |
| 20260904181527 | 69 | 332 | 4.0 | 9.0 | 0.00 | 0.00 | 0.00 | 47 | 1006.4 |
| 20260904180010 | 67 | 337 | 5.0 | 9.0 | 0.00 | 0.00 | 0.00 | 49 | 1006.4 |
| 20260904174509 | 67 | 336 | 3.0 | 6.0 | 0.00 | 0.00 | 0.00 | 48 | 1006.7 |
| 20260904173017 | 66 | 325 | 3.0 | 8.0 | 0.00 | 0.00 | 0.00 | 50 | 1006.5 |
| 20260904171509 | 64 | 336 | 2.0 | 9.0 | 0.00 | 0.00 | 0.00 | 52 | 1006.5 |
| 20260904170001 | 64 | 28 | 10.0 | 15.0 | 0.00 | 0.00 | 0.00 | 50 | 1005.5 |
| 20260904164558 | 62 | 20 | 10.0 | 13.0 | 0.00 | 0.00 | 0.00 | 57 | 1005.1 |
| 20260904163055 | 60 | 29 | 5.0 | 8.0 | 0.00 | 0.00 | 0.00 | 58 | 1005.9 |
| 20260904161604 | 60 | 15 | 5.0 | 11.0 | 0.00 | 0.00 | 0.00 | 60 | 1006.2 |
| 20260904160059 | 60 | 13 | 5.0 | 10.0 | 0.00 | 0.00 | 0.00 | 60 | 1006.1 |
| 20260904154550 | 60 | 19 | 5.0 | 9.0 | 0.00 | 0.00 | 0.00 | 63 | 1005.7 |
| 20260904153048 | 58 | 28 | 4.0 | 6.0 | 0.00 | 0.00 | 0.00 | 67 | 1005.9 |
| 20260904151549 | 58 | 35 | 7.0 | 11.0 | 0.00 | 0.00 | 0.00 | 65 | 1005.6 |
| 20260904150041 | 56 | 41 | 5.0 | 10.0 | 0.00 | 0.00 | 0.00 | 69 | 1005.8 |
| 20260904144545 | 55 | 42 | 3.0 | 11.0 | 0.00 | 0.00 | 0.00 | 71 | 1005.9 |
| 20260904143048 | 54 | 45 | 6.0 | 12.0 | 0.00 | 0.00 | 0.00 | 74 | 1005.7 |
| 20260904141529 | 52 | 54 | 4.0 | 7.0 | 0.00 | 0.00 | 0.00 | 78 | 1005.9 |
| 20260904140025 | 50 | 59 | 4.0 | 9.0 | 0.00 | 0.00 | 0.00 | 80 | 1006.0 |
| 20260904134522 | 49 | 76 | 5.0 | 8.0 | 0.00 | 0.00 | 0.00 | 83 | 1005.7 |
| 20260904133020 | 48 | 94 | 4.0 | 7.0 | 0.00 | 0.00 | 0.00 | 84 | 1005.8 |
| 20260904131517 | 48 | 101 | 2.0 | 8.0 | 0.00 | 0.00 | 0.00 | 85 | 1005.8 |
| 20260904130014 | 47 | 109 | 4.0 | 7.0 | 0.00 | 0.00 | 0.00 | 87 | 1005.8 |
| 20260904124514 | 46 | 113 | 3.0 | 7.0 | 0.00 | 0.00 | 0.00 | 87 | 1005.8 |
| 20260904123012 | 47 | 116 | 3.0 | 6.0 | 0.00 | 0.00 | 0.00 | 87 | 1005.6 |
| 20260904121511 | 47 | 117 | 3.0 | 7.0 | 0.00 | 0.00 | 0.00 | 87 | 1005.6 |
| 20260904120009 | 46 | 128 | 3.0 | 9.0 | 0.00 | 0.00 | 0.00 | 89 | 1005.6 |
| 20260904114509 | 45 | 153 | 3.0 | 6.0 | 0.00 | 0.00 | 0.00 | 89 | 1005.7 |
| 20260904113009 | 45 | 157 | 2.0 | 6.0 | 0.00 | 0.00 | 0.00 | 89 | 1005.6 |
| 20260904111506 | 45 | 163 | 2.0 | 3.0 | 0.00 | 0.00 | 0.00 | 90 | 1005.6 |
| 20260904110004 | 44 | 163 | 2.0 | 3.0 | 0.00 | 0.00 | 0.00 | 90 | 1005.8 |
| 20260904104503 | 44 | 164 | 0.0 | 2.0 | 0.00 | 0.00 | 0.00 | 89 | 1006.0 |
| 20260904103005 | 44 | 164 | 0.0 | 3.0 | 0.00 | 0.00 | 0.00 | 89 | 1005.9 |
| 20260904101502 | 44 | 164 | 0.0 | 3.0 | 0.00 | 0.00 | 0.00 | 88 | 1005.9 |
| 20260904100002 | 44 | 164 | 1.0 | 5.0 | 0.00 | 0.00 | 0.00 | 88 | 1005.9 |
| 20260904094600 | 44 | 165 | 1.0 | 6.0 | 0.00 | 0.00 | 0.00 | 88 | 1005.9 |
| 20260904093103 | 44 | 186 | 0.0 | 1.0 | 0.00 | 0.00 | 0.00 | 87 | 1006.0 |
| 20260904091558 | 44 | 186 | 0.0 | 0.0 | 0.00 | 0.00 | 0.00 | 87 | 1005.9 |
| 20260904090054 | 44 | 186 | 0.0 | 1.0 | 0.00 | 0.00 | 0.00 | 85 | 1005.8 |
| 20260904084552 | 45 | 186 | 0.0 | 2.0 | 0.00 | 0.00 | 0.00 | 84 | 1005.8 |
| 20260904083052 | 45 | 186 | 0.0 | 3.0 | 0.00 | 0.00 | 0.00 | 82 | 1005.9 |
| 20260904081546 | 46 | 186 | 0.0 | 1.0 | 0.00 | 0.00 | 0.00 | 81 | 1006.1 |
| 20260904080043 | 47 | 186 | 0.0 | 3.0 | 0.00 | 0.00 | 0.00 | 83 | 1006.0 |
| 20260904074559 | 48 | 185 | 0.0 | 1.0 | 0.00 | 0.00 | 0.00 | 82 | 1006.0 |
| 20260904073041 | 48 | 185 | 0.0 | 4.0 | 0.00 | 0.00 | 0.00 | 82 | 1006.2 |
| 20260904071558 | 48 | 188 | 0.0 | 2.0 | 0.00 | 0.00 | 0.00 | 82 | 1006.1 |
| 20260904070039 | 48 | 187 | 0.0 | 3.0 | 0.00 | 0.00 | 0.00 | 82 | 1006.2 |
| 20260904064544 | 48 | 187 | 1.0 | 3.0 | 0.00 | 0.00 | 0.00 | 81 | 1006.2 |
| 20260904063047 | 48 | 187 | 2.0 | 4.0 | 0.00 | 0.00 | 0.00 | 79 | 1006.3 |
| 20260904061532 | 50 | 187 | 1.0 | 4.0 | 0.00 | 0.00 | 0.00 | 78 | 1006.1 |
| 20260904060029 | 50 | 187 | 1.0 | 4.0 | 0.00 | 0.00 | 0.00 | 76 | 1006.0 |
| 20260904054534 | 50 | 185 | 2.0 | 5.0 | 0.00 | 0.00 | 0.00 | 75 | 1005.9 |
| 20260904053026 | 51 | 178 | 0.0 | 3.0 | 0.00 | 0.00 | 0.00 | 77 | 1005.7 |
| 20260904051524 | 50 | 178 | 2.0 | 4.0 | 0.00 | 0.00 | 0.00 | 73 | 1005.7 |
| 20260904050023 | 50 | 178 | 0.0 | 4.0 | 0.00 | 0.00 | 0.00 | 75 | 1005.6 |
| 20260904044521 | 51 | 178 | 0.0 | 3.0 | 0.00 | 0.00 | 0.00 | 76 | 1005.5 |
| 20260904043021 | 51 | 178 | 2.0 | 6.0 | 0.00 | 0.00 | 0.00 | 73 | 1005.4 |
| 20260904041525 | 51 | 178 | 2.0 | 6.0 | 0.00 | 0.00 | 0.00 | 72 | 1005.3 |
| 20260904040017 | 52 | 184 | 2.0 | 4.0 | 0.00 | 0.00 | 0.00 | 67 | 1005.3 |
| 20260904034513 | 54 | 184 | 3.0 | 5.0 | 0.00 | 0.00 | 0.00 | 66 | 1005.1 |
| 20260904033011 | 56 | 183 | 2.0 | 3.0 | 0.00 | 0.00 | 0.00 | 66 | 1005.0 |
| 20260904031510 | 56 | 183 | 3.0 | 6.0 | 0.00 | 0.00 | 0.00 | 64 | 1004.9 |
| 20260904030010 | 55 | 223 | 3.0 | 5.0 | 0.00 | 0.00 | 0.00 | 65 | 1004.9 |
| 20260904024507 | 59 | 245 | 2.0 | 4.0 | 0.00 | 0.00 | 0.00 | 56 | 1004.6 |
| 20260904023009 | 62 | 246 | 4.0 | 9.0 | 0.00 | 0.00 | 0.00 | 54 | 1004.5 |
| 20260904021515 | 63 | 245 | 8.0 | 10.0 | 0.00 | 0.00 | 0.00 | 50 | 1004.4 |
| 20260904020004 | 66 | 242 | 6.0 | 9.0 | 0.00 | 0.00 | 0.00 | 47 | 1004.2 |
| 20260904014502 | 68 | 246 | 7.0 | 14.0 | 0.00 | 0.00 | 0.00 | 43 | 1004.0 |
| 20260904013100 | 70 | 244 | 9.0 | 13.0 | 0.00 | 0.00 | 0.00 | 40 | 1003.8 |
| 20260904011559 | 72 | 221 | 8.0 | 14.0 | 0.00 | 0.00 | 0.00 | 38 | 1003.6 |
| 20260904010057 | 72 | 237 | 6.0 | 14.0 | 0.00 | 0.00 | 0.00 | 39 | 1003.4 |
| 20260904004559 | 73 | 302 | 4.0 | 9.0 | 0.00 | 0.00 | 0.00 | 38 | 1003.2 |
| 20260904003054 | 73 | 262 | 5.0 | 10.0 | 0.00 | 0.00 | 0.00 | 39 | 1003.0 |
| 20260904001552 | 74 | 236 | 8.0 | 14.0 | 0.00 | 0.00 | 0.00 | 36 | 1002.8 |
| 20260904000050 | 76 | 243 | 11.0 | 17.0 | 0.00 | 0.00 | 0.00 | 34 | 1002.5 |
| 20260903234549 | 77 | 255 | 14.0 | 21.0 | 0.00 | 0.00 | 0.00 | 34 | 1002.4 |
| 20260903233048 | 75 | 262 | 7.0 | 13.0 | 0.00 | 0.00 | 0.00 | 37 | 1002.3 |
| 20260903231551 | 77 | 249 | 11.0 | 16.0 | 0.00 | 0.00 | 0.00 | 34 | 1002.1 |
| 20260903230048 | 76 | 249 | 11.0 | 18.0 | 0.00 | 0.00 | 0.00 | 34 | 1001.9 |
| 20260903224545 | 76 | 257 | 9.0 | 17.0 | 0.00 | 0.00 | 0.00 | 36 | 1001.7 |
| 20260903223042 | 77 | 255 | 10.0 | 19.0 | 0.00 | 0.00 | 0.00 | 35 | 1001.6 |
| 20260903221547 | 77 | 232 | 11.0 | 19.0 | 0.00 | 0.00 | 0.00 | 34 | 1001.5 |
| 20260903220038 | 75 | 246 | 8.0 | 16.0 | 0.00 | 0.00 | 0.00 | 38 | 1001.4 |
| 20260903214537 | 75 | 241 | 11.0 | 17.0 | 0.00 | 0.00 | 0.00 | 37 | 1001.4 |
| 20260903213037 | 77 | 258 | 13.0 | 19.0 | 0.00 | 0.00 | 0.00 | 35 | 1001.2 |
| 20260903211535 | 77 | 302 | 12.0 | 19.0 | 0.00 | 0.00 | 0.00 | 35 | 1001.2 |